21-11-2022, 00:00:04,    216,    0.0,    2.6,   0.00,   0.00, 1005.3,   85.2, -999.0
21-11-2022, 00:00:14,    216,    0.0,    2.7,   0.00,   0.00, 1005.3,   85.3, -999.0
21-11-2022, 00:00:23,    216,    0.0,    2.7,   0.00,   0.00, 1005.3,   85.2, -999.0
21-11-2022, 00:00:33,    216,    0.0,    2.7,   0.00,   0.00, 1005.3,   85.2, -999.0
21-11-2022, 00:00:44,    216,    0.0,    2.7,   0.00,   0.00, 1005.3,   85.3, -999.0
21-11-2022, 00:00:54,    216,    0.0,    2.6,   0.00,   0.00, 1005.3,   85.3, -999.0
21-11-2022, 00:01:03,    216,    0.0,    2.7,   0.00,   0.00, 1005.3,   85.4, -999.0
21-11-2022, 00:01:13,    216,    0.0,    2.7,   0.00,   0.00, 1005.3,   85.3, -999.0
21-11-2022, 00:01:24,    216,    0.1,    2.7,   0.00,   0.00, 1005.4,   85.5, -999.0
21-11-2022, 00:01:33,    217,    0.1,    2.7,   0.00,   0.00, 1005.4,   85.3, -999.0
21-11-2022, 00:01:43,    217,    0.0,    2.7,   0.00,   0.00, 1005.3,   85.1, -999.0
21-11-2022, 00:01:53,    217,    0.0,    2.6,   0.00,   0.00, 1005.3,   85.0, -999.0
21-11-2022, 00:02:03,    216,    0.1,    2.6,   0.00,   0.00, 1005.4,   85.2, -999.0
21-11-2022, 00:02:13,    216,    0.0,    2.6,   0.00,   0.00, 1005.3,   84.9, -999.0
21-11-2022, 00:02:23,    216,    0.0,    2.6,   0.00,   0.00, 1005.3,   85.0, -999.0
21-11-2022, 00:02:33,    217,    0.0,    2.6,   0.00,   0.00, 1005.3,   85.2, -999.0
21-11-2022, 00:02:43,    216,    0.1,    2.6,   0.00,   0.00, 1005.4,   85.4, -999.0
21-11-2022, 00:02:53,    200,    0.4,    2.6,   0.00,   0.00, 1005.4,   85.5, -999.0
21-11-2022, 00:03:03,    200,    0.1,    2.7,   0.00,   0.00, 1005.4,   85.5, -999.0
21-11-2022, 00:03:13,    199,    0.0,    2.6,   0.00,   0.00, 1005.3,   85.4, -999.0
21-11-2022, 00:03:24,    200,    0.2,    2.6,   0.00,   0.00, 1005.4,   85.4, -999.0
21-11-2022, 00:03:33,    200,    0.5,    2.7,   0.00,   0.00, 1005.4,   85.8, -999.0
21-11-2022, 00:03:43,    199,    0.0,    2.5,   0.00,   0.00, 1005.3,   85.6, -999.0
21-11-2022, 00:03:53,    200,    0.0,    2.6,   0.00,   0.00, 1005.3,   85.7, -999.0
21-11-2022, 00:04:03,    200,    0.0,    2.7,   0.00,   0.00, 1005.3,   85.9, -999.0
21-11-2022, 00:04:13,    199,    0.1,    2.7,   0.00,   0.00, 1005.4,   86.1, -999.0
21-11-2022, 00:04:23,    199,    0.0,    2.7,   0.00,   0.00, 1005.3,   86.0, -999.0
21-11-2022, 00:04:33,    201,    0.1,    2.7,   0.00,   0.00, 1005.4,   86.4, -999.0
21-11-2022, 00:04:43,    202,    0.3,    2.7,   0.00,   0.00, 1005.4,   86.2, -999.0
21-11-2022, 00:04:53,    201,    0.0,    2.6,   0.00,   0.00, 1005.3,   85.9, -999.0
21-11-2022, 00:05:03,    201,    0.3,    2.6,   0.00,   0.00, 1005.4,   86.0, -999.0
21-11-2022, 00:05:13,    201,    0.2,    2.7,   0.00,   0.00, 1005.4,   86.1, -999.0
21-11-2022, 00:05:23,    201,    0.0,    2.6,   0.00,   0.00, 1005.3,   86.0, -999.0
21-11-2022, 00:05:33,    200,    0.0,    2.6,   0.00,   0.00, 1005.4,   86.2, -999.0
21-11-2022, 00:05:42,    201,    0.0,    2.6,   0.00,   0.00, 1005.3,   86.3, -999.0
21-11-2022, 00:05:53,    200,    0.0,    2.5,   0.00,   0.00, 1005.3,   86.3, -999.0
21-11-2022, 00:06:03,    201,    0.0,    2.4,   0.00,   0.00, 1005.3,   86.3, -999.0
21-11-2022, 00:06:12,    201,    0.0,    2.5,   0.00,   0.00, 1005.4,   86.3, -999.0
21-11-2022, 00:06:22,    201,    0.4,    2.6,   0.00,   0.00, 1005.4,   86.7, -999.0
21-11-2022, 00:06:33,    201,    0.3,    2.7,   0.00,   0.00, 1005.4,   86.7, -999.0
21-11-2022, 00:06:42,    201,    0.0,    2.6,   0.00,   0.00, 1005.3,   86.6, -999.0
21-11-2022, 00:06:52,    201,    0.0,    2.6,   0.00,   0.00, 1005.4,   86.7, -999.0
21-11-2022, 00:07:03,    201,    0.0,    2.7,   0.00,   0.00, 1005.4,   86.6, -999.0
21-11-2022, 00:07:12,    200,    0.0,    2.6,   0.00,   0.00, 1005.3,   86.4, -999.0
21-11-2022, 00:07:22,    200,    0.0,    2.5,   0.00,   0.00, 1005.4,   86.3, -999.0
21-11-2022, 00:07:32,    200,    0.0,    2.6,   0.00,   0.00, 1005.4,   86.3, -999.0
21-11-2022, 00:07:42,    201,    0.0,    2.6,   0.00,   0.00, 1005.4,   86.3, -999.0
21-11-2022, 00:07:52,    200,    0.0,    2.6,   0.00,   0.00, 1005.4,   86.3, -999.0
21-11-2022, 00:08:02,    200,    0.0,    2.5,   0.00,   0.00, 1005.4,   86.4, -999.0
21-11-2022, 00:08:12,    201,    0.0,    2.5,   0.00,   0.00, 1005.4,   86.5, -999.0
21-11-2022, 00:08:22,    201,    0.0,    2.5,   0.00,   0.00, 1005.4,   86.8, -999.0
21-11-2022, 00:08:32,    200,    0.0,    2.6,   0.00,   0.00, 1005.4,   87.0, -999.0
21-11-2022, 00:08:42,    201,    0.0,    2.6,   0.00,   0.00, 1005.4,   87.1, -999.0
21-11-2022, 00:08:52,    200,    0.0,    2.6,   0.00,   0.00, 1005.5,   87.2, -999.0
21-11-2022, 00:09:02,    201,    0.0,    2.6,   0.00,   0.00, 1005.4,   87.2, -999.0
21-11-2022, 00:09:12,    200,    0.0,    2.5,   0.00,   0.00, 1005.5,   87.3, -999.0
21-11-2022, 00:09:22,    200,    0.2,    2.6,   0.00,   0.00, 1005.5,   87.4, -999.0
21-11-2022, 00:09:32,    200,    0.0,    2.7,   0.00,   0.00, 1005.5,   87.2, -999.0
21-11-2022, 00:09:42,    201,    0.0,    2.6,   0.00,   0.00, 1005.5,   87.3, -999.0
21-11-2022, 00:09:52,    200,    0.0,    2.5,   0.00,   0.00, 1005.4,   87.3, -999.0
21-11-2022, 00:10:02,    201,    0.0,    2.6,   0.00,   0.00, 1005.5,   87.4, -999.0
21-11-2022, 00:10:12,    200,    0.0,    2.6,   0.00,   0.00, 1005.5,   87.5, -999.0
21-11-2022, 00:10:22,    200,    0.0,    2.6,   0.00,   0.00, 1005.5,   87.3, -999.0
21-11-2022, 00:10:32,    201,    0.1,    2.6,   0.00,   0.00, 1005.5,   87.6, -999.0
21-11-2022, 00:10:42,    200,    0.0,    2.6,   0.00,   0.00, 1005.5,   87.3, -999.0
21-11-2022, 00:10:52,    200,    0.0,    2.6,   0.00,   0.00, 1005.5,   87.4, -999.0
21-11-2022, 00:11:02,    200,    0.0,    2.6,   0.00,   0.00, 1005.4,   87.2, -999.0
21-11-2022, 00:11:12,    200,    0.0,    2.5,   0.00,   0.00, 1005.5,   87.2, -999.0
21-11-2022, 00:11:22,    200,    0.0,    2.6,   0.00,   0.00, 1005.4,   87.0, -999.0
21-11-2022, 00:11:32,    200,    0.0,    2.5,   0.00,   0.00, 1005.5,   86.9, -999.0
21-11-2022, 00:11:42,    200,    0.0,    2.5,   0.00,   0.00, 1005.4,   87.1, -999.0
21-11-2022, 00:11:52,    200,    0.0,    2.6,   0.00,   0.00, 1005.4,   87.2, -999.0
21-11-2022, 00:12:01,    200,    0.0,    2.5,   0.00,   0.00, 1005.4,   87.2, -999.0
21-11-2022, 00:12:12,    200,    0.0,    2.6,   0.00,   0.00, 1005.4,   87.1, -999.0
21-11-2022, 00:12:22,    200,    0.4,    2.7,   0.00,   0.00, 1005.5,   87.3, -999.0
21-11-2022, 00:12:31,    200,    0.1,    2.6,   0.00,   0.00, 1005.5,   87.2, -999.0
21-11-2022, 00:12:41,    200,    0.2,    2.6,   0.00,   0.00, 1005.5,   87.5, -999.0
21-11-2022, 00:12:52,    200,    0.0,    2.6,   0.00,   0.00, 1005.4,   87.3, -999.0
21-11-2022, 00:13:01,    200,    0.0,    2.6,   0.00,   0.00, 1005.5,   86.9, -999.0
21-11-2022, 00:13:11,    200,    0.0,    2.6,   0.00,   0.00, 1005.4,   86.6, -999.0
21-11-2022, 00:13:21,    199,    0.0,    2.6,   0.00,   0.00, 1005.4,   86.4, -999.0
21-11-2022, 00:13:31,    200,    0.0,    2.6,   0.00,   0.00, 1005.5,   86.1, -999.0
21-11-2022, 00:13:41,    200,    0.0,    2.6,   0.00,   0.00, 1005.4,   86.1, -999.0
21-11-2022, 00:13:51,    200,    0.0,    2.6,   0.00,   0.00, 1005.5,   86.1, -999.0
21-11-2022, 00:14:01,    200,    0.0,    2.6,   0.00,   0.00, 1005.5,   85.9, -999.0
21-11-2022, 00:14:11,    200,    0.0,    2.6,   0.00,   0.00, 1005.5,   85.9, -999.0
21-11-2022, 00:14:21,    193,    0.0,    2.6,   0.00,   0.00, 1005.5,   85.9, -999.0
21-11-2022, 00:14:31,    190,    0.3,    2.6,   0.00,   0.00, 1005.5,   86.0, -999.0
21-11-2022, 00:14:41,    190,    0.0,    2.5,   0.00,   0.00, 1005.5,   85.8, -999.0
21-11-2022, 00:14:51,    190,    0.0,    2.6,   0.00,   0.00, 1005.5,   85.9, -999.0
21-11-2022, 00:15:01,    190,    0.0,    2.6,   0.00,   0.00, 1005.5,   86.0, -999.0
21-11-2022, 00:15:11,    190,    0.3,    2.6,   0.00,   0.00, 1005.5,   86.1, -999.0
21-11-2022, 00:15:21,    190,    0.0,    2.6,   0.00,   0.00, 1005.5,   85.9, -999.0
21-11-2022, 00:15:31,    190,    0.0,    2.7,   0.00,   0.00, 1005.5,   85.7, -999.0
21-11-2022, 00:15:41,    190,    0.0,    2.6,   0.00,   0.00, 1005.5,   85.5, -999.0
21-11-2022, 00:15:51,    190,    0.0,    2.6,   0.00,   0.00, 1005.5,   85.4, -999.0
21-11-2022, 00:16:01,    190,    0.0,    2.6,   0.00,   0.00, 1005.5,   85.4, -999.0
21-11-2022, 00:16:11,    190,    0.0,    2.5,   0.00,   0.00, 1005.5,   85.2, -999.0
21-11-2022, 00:16:21,    190,    0.0,    2.6,   0.00,   0.00, 1005.5,   85.2, -999.0
21-11-2022, 00:16:31,    190,    0.0,    2.6,   0.00,   0.00, 1005.4,   85.1, -999.0
21-11-2022, 00:16:40,    190,    0.0,    2.6,   0.00,   0.00, 1005.5,   85.2, -999.0
21-11-2022, 00:16:51,    190,    0.0,    2.6,   0.00,   0.00, 1005.4,   85.3, -999.0
21-11-2022, 00:17:01,    190,    0.0,    2.6,   0.00,   0.00, 1005.4,   85.2, -999.0
21-11-2022, 00:17:11,    190,    0.0,    2.5,   0.00,   0.00, 1005.4,   85.3, -999.0
21-11-2022, 00:17:20,    190,    0.0,    2.6,   0.00,   0.00, 1005.4,   85.4, -999.0
21-11-2022, 00:17:31,    190,    0.0,    2.6,   0.00,   0.00, 1005.4,   85.5, -999.0
21-11-2022, 00:17:41,    190,    0.0,    2.6,   0.00,   0.00, 1005.4,   85.6, -999.0
21-11-2022, 00:17:50,    189,    0.0,    2.6,   0.00,   0.00, 1005.4,   85.6, -999.0
21-11-2022, 00:18:01,    190,    0.0,    2.6,   0.00,   0.00, 1005.4,   85.5, -999.0
21-11-2022, 00:18:11,    190,    0.0,    2.7,   0.00,   0.00, 1005.4,   85.6, -999.0
21-11-2022, 00:18:20,    190,    0.0,    2.7,   0.00,   0.00, 1005.3,   86.0, -999.0
21-11-2022, 00:18:30,    190,    0.0,    2.7,   0.00,   0.00, 1005.3,   86.1, -999.0
21-11-2022, 00:18:41,    190,    0.0,    2.7,   0.00,   0.00, 1005.4,   85.9, -999.0
21-11-2022, 00:18:50,    190,    0.0,    2.7,   0.00,   0.00, 1005.3,   85.7, -999.0
21-11-2022, 00:19:00,    190,    0.0,    2.7,   0.00,   0.00, 1005.4,   85.4, -999.0
21-11-2022, 00:19:10,    190,    0.0,    2.7,   0.00,   0.00, 1005.4,   85.4, -999.0
21-11-2022, 00:19:20,    190,    0.0,    2.7,   0.00,   0.00, 1005.3,   85.2, -999.0
21-11-2022, 00:19:30,    190,    0.0,    2.7,   0.00,   0.00, 1005.3,   85.1, -999.0
21-11-2022, 00:19:40,    190,    0.0,    2.7,   0.00,   0.00, 1005.4,   85.1, -999.0
21-11-2022, 00:19:50,    190,    0.0,    2.7,   0.00,   0.00, 1005.3,   85.2, -999.0
21-11-2022, 00:20:00,    190,    0.0,    2.7,   0.00,   0.00, 1005.4,   85.2, -999.0
21-11-2022, 00:20:10,    190,    0.0,    2.8,   0.00,   0.00, 1005.4,   85.1, -999.0
21-11-2022, 00:20:20,    190,    0.0,    2.7,   0.00,   0.00, 1005.4,   84.9, -999.0
21-11-2022, 00:20:30,    190,    0.0,    2.7,   0.00,   0.00, 1005.4,   84.9, -999.0
21-11-2022, 00:20:40,    190,    0.0,    2.7,   0.00,   0.00, 1005.4,   84.8, -999.0
21-11-2022, 00:20:50,    190,    0.0,    2.6,   0.00,   0.00, 1005.4,   84.9, -999.0
21-11-2022, 00:21:00,    190,    0.0,    2.7,   0.00,   0.00, 1005.4,   84.9, -999.0
21-11-2022, 00:21:10,    190,    0.0,    2.7,   0.00,   0.00, 1005.3,   84.9, -999.0
21-11-2022, 00:21:20,    190,    0.0,    2.7,   0.00,   0.00, 1005.4,   84.8, -999.0
21-11-2022, 00:21:30,    190,    0.0,    2.7,   0.00,   0.00, 1005.4,   84.8, -999.0
21-11-2022, 00:21:40,    190,    0.0,    2.7,   0.00,   0.00, 1005.3,   84.9, -999.0
21-11-2022, 00:21:50,    190,    0.0,    2.7,   0.00,   0.00, 1005.3,   85.0, -999.0
21-11-2022, 00:22:00,    190,    0.0,    2.6,   0.00,   0.00, 1005.3,   84.8, -999.0
21-11-2022, 00:22:10,    190,    0.0,    2.6,   0.00,   0.00, 1005.3,   84.8, -999.0
21-11-2022, 00:22:20,    190,    0.0,    2.6,   0.00,   0.00, 1005.3,   84.8, -999.0
21-11-2022, 00:22:29,    190,    0.0,    2.5,   0.00,   0.00, 1005.3,   84.8, -999.0
21-11-2022, 00:22:40,    190,    0.0,    2.7,   0.00,   0.00, 1005.3,   84.7, -999.0
21-11-2022, 00:22:50,    190,    0.0,    2.7,   0.00,   0.00, 1005.3,   84.8, -999.0
21-11-2022, 00:23:00,    190,    0.0,    2.7,   0.00,   0.00, 1005.3,   84.8, -999.0
21-11-2022, 00:23:12,    190,    0.0,    2.8,   0.00,   0.00, 1005.3,   84.9, -999.0
21-11-2022, 00:23:20,    190,    0.1,    2.8,   0.00,   0.00, 1005.4,   85.0, -999.0
21-11-2022, 00:23:30,    190,    0.0,    2.7,   0.00,   0.00, 1005.3,   84.8, -999.0
21-11-2022, 00:23:39,    190,    0.0,    2.7,   0.00,   0.00, 1005.3,   84.7, -999.0
21-11-2022, 00:23:50,    190,    0.0,    2.7,   0.00,   0.00, 1005.3,   84.7, -999.0
21-11-2022, 00:24:00,    190,    0.0,    2.6,   0.00,   0.00, 1005.3,   84.7, -999.0
21-11-2022, 00:24:09,    190,    0.0,    2.7,   0.00,   0.00, 1005.3,   84.7, -999.0
21-11-2022, 00:24:19,    190,    0.4,    2.8,   0.00,   0.00, 1005.4,   84.7, -999.0
21-11-2022, 00:24:30,    190,    0.0,    2.8,   0.00,   0.00, 1005.3,   84.6, -999.0
21-11-2022, 00:24:39,    190,    0.3,    2.7,   0.00,   0.00, 1005.4,   84.8, -999.0
21-11-2022, 00:24:49,    190,    0.1,    2.9,   0.00,   0.00, 1005.4,   84.7, -999.0
21-11-2022, 00:24:59,    189,    0.0,    2.8,   0.00,   0.00, 1005.3,   84.4, -999.0
21-11-2022, 00:25:09,    189,    0.0,    2.8,   0.00,   0.00, 1005.2,   84.3, -999.0
21-11-2022, 00:25:19,    190,    0.2,    2.8,   0.00,   0.00, 1005.3,   84.4, -999.0
21-11-2022, 00:25:29,    189,    0.4,    2.9,   0.00,   0.00, 1005.4,   84.4, -999.0
21-11-2022, 00:25:39,    189,    0.0,    2.8,   0.00,   0.00, 1005.2,   84.0, -999.0
21-11-2022, 00:25:49,    189,    0.0,    2.8,   0.00,   0.00, 1005.3,   84.1, -999.0
21-11-2022, 00:25:59,    189,    0.0,    2.8,   0.00,   0.00, 1005.3,   83.9, -999.0
21-11-2022, 00:26:09,    189,    0.0,    2.9,   0.00,   0.00, 1005.3,   83.8, -999.0
21-11-2022, 00:26:19,    189,    0.0,    2.8,   0.00,   0.00, 1005.3,   83.8, -999.0
21-11-2022, 00:26:29,    189,    0.0,    2.8,   0.00,   0.00, 1005.2,   83.8, -999.0
21-11-2022, 00:26:39,    189,    0.0,    2.8,   0.00,   0.00, 1005.2,   83.7, -999.0
21-11-2022, 00:26:49,    189,    0.0,    2.8,   0.00,   0.00, 1005.2,   83.7, -999.0
21-11-2022, 00:26:59,    189,    0.0,    2.7,   0.00,   0.00, 1005.2,   83.8, -999.0
21-11-2022, 00:27:09,    189,    0.0,    2.8,   0.00,   0.00, 1005.2,   83.7, -999.0
21-11-2022, 00:27:19,    189,    0.0,    2.7,   0.00,   0.00, 1005.2,   83.7, -999.0
21-11-2022, 00:27:29,    190,    0.0,    2.8,   0.00,   0.00, 1005.2,   83.7, -999.0
21-11-2022, 00:27:39,    187,    0.0,    2.8,   0.00,   0.00, 1005.2,   83.7, -999.0
21-11-2022, 00:27:49,    189,    0.2,    2.8,   0.00,   0.00, 1005.2,   83.9, -999.0
21-11-2022, 00:27:59,    189,    0.0,    2.8,   0.00,   0.00, 1005.1,   83.7, -999.0
21-11-2022, 00:28:09,    190,    0.0,    2.8,   0.00,   0.00, 1005.1,   83.7, -999.0
21-11-2022, 00:28:19,    189,    0.0,    2.8,   0.00,   0.00, 1005.1,   83.7, -999.0
21-11-2022, 00:28:29,    189,    0.0,    2.8,   0.00,   0.00, 1005.2,   83.7, -999.0
21-11-2022, 00:28:39,    190,    0.0,    2.8,   0.00,   0.00, 1005.1,   83.6, -999.0
21-11-2022, 00:28:48,    189,    0.0,    2.7,   0.00,   0.00, 1005.1,   83.5, -999.0
21-11-2022, 00:28:59,    190,    0.0,    2.7,   0.00,   0.00, 1005.1,   83.5, -999.0
21-11-2022, 00:29:09,    189,    0.0,    2.8,   0.00,   0.00, 1005.1,   83.5, -999.0
21-11-2022, 00:29:18,    189,    0.0,    2.9,   0.00,   0.00, 1005.2,   83.5, -999.0
21-11-2022, 00:29:28,    189,    0.0,    2.9,   0.00,   0.00, 1005.1,   83.5, -999.0
21-11-2022, 00:29:39,    189,    0.0,    2.8,   0.00,   0.00, 1005.1,   83.4, -999.0
21-11-2022, 00:29:49,    189,    0.0,    2.9,   0.00,   0.00, 1005.1,   83.3, -999.0
21-11-2022, 00:29:58,    189,    0.0,    2.8,   0.00,   0.00, 1005.1,   83.4, -999.0
21-11-2022, 00:30:08,    189,    0.0,    2.8,   0.00,   0.00, 1005.1,   83.3, -999.0
21-11-2022, 00:30:19,    189,    0.0,    2.9,   0.00,   0.00, 1005.2,   83.3, -999.0
21-11-2022, 00:30:28,    189,    0.0,    2.8,   0.00,   0.00, 1005.2,   83.4, -999.0
21-11-2022, 00:30:38,    189,    0.0,    2.9,   0.00,   0.00, 1005.2,   83.3, -999.0
21-11-2022, 00:30:48,    189,    0.0,    2.8,   0.00,   0.00, 1005.2,   83.3, -999.0
21-11-2022, 00:30:58,    190,    0.0,    2.9,   0.00,   0.00, 1005.2,   83.3, -999.0
21-11-2022, 00:31:08,    190,    0.0,    2.9,   0.00,   0.00, 1005.2,   83.3, -999.0
21-11-2022, 00:31:18,    189,    0.0,    2.9,   0.00,   0.00, 1005.2,   83.2, -999.0
21-11-2022, 00:31:28,    189,    0.0,    2.9,   0.00,   0.00, 1005.2,   83.1, -999.0
21-11-2022, 00:31:38,    189,    0.0,    2.9,   0.00,   0.00, 1005.2,   83.1, -999.0
21-11-2022, 00:31:48,    189,    0.0,    2.9,   0.00,   0.00, 1005.2,   83.0, -999.0
21-11-2022, 00:31:58,    189,    0.0,    2.9,   0.00,   0.00, 1005.2,   83.0, -999.0
21-11-2022, 00:32:08,    189,    0.0,    2.9,   0.00,   0.00, 1005.2,   82.9, -999.0
21-11-2022, 00:32:18,    189,    0.0,    3.0,   0.00,   0.00, 1005.2,   82.8, -999.0
21-11-2022, 00:32:28,    189,    0.1,    3.0,   0.00,   0.00, 1005.2,   83.0, -999.0
21-11-2022, 00:32:38,    189,    0.0,    3.1,   0.00,   0.00, 1005.2,   83.0, -999.0
21-11-2022, 00:32:48,    189,    0.0,    3.0,   0.00,   0.00, 1005.2,   82.6, -999.0
21-11-2022, 00:32:58,    189,    0.0,    3.0,   0.00,   0.00, 1005.2,   82.6, -999.0
21-11-2022, 00:33:08,    189,    0.0,    3.0,   0.00,   0.00, 1005.2,   82.5, -999.0
21-11-2022, 00:33:18,    189,    0.0,    3.0,   0.00,   0.00, 1005.2,   82.5, -999.0
21-11-2022, 00:33:28,    189,    0.0,    3.0,   0.00,   0.00, 1005.1,   82.5, -999.0
21-11-2022, 00:33:38,    189,    0.0,    3.0,   0.00,   0.00, 1005.1,   82.5, -999.0
21-11-2022, 00:33:48,    189,    0.0,    3.0,   0.00,   0.00, 1005.1,   82.4, -999.0
21-11-2022, 00:33:58,    189,    0.0,    3.0,   0.00,   0.00, 1005.1,   82.2, -999.0
21-11-2022, 00:34:08,    189,    0.0,    3.0,   0.00,   0.00, 1005.1,   82.3, -999.0
21-11-2022, 00:34:18,    189,    0.0,    3.1,   0.00,   0.00, 1005.1,   82.1, -999.0
21-11-2022, 00:34:28,    189,    0.0,    3.0,   0.00,   0.00, 1005.1,   82.1, -999.0
21-11-2022, 00:34:37,    189,    0.0,    3.1,   0.00,   0.00, 1005.1,   82.2, -999.0
21-11-2022, 00:34:48,    189,    0.0,    3.0,   0.00,   0.00, 1005.1,   82.1, -999.0
21-11-2022, 00:34:58,    189,    0.0,    3.1,   0.00,   0.00, 1005.1,   82.0, -999.0
21-11-2022, 00:35:08,    189,    0.0,    3.0,   0.00,   0.00, 1005.1,   82.0, -999.0
21-11-2022, 00:35:17,    189,    0.0,    3.1,   0.00,   0.00, 1005.1,   82.1, -999.0
21-11-2022, 00:35:28,    189,    0.0,    3.1,   0.00,   0.00, 1005.1,   82.0, -999.0
21-11-2022, 00:35:38,    189,    0.0,    3.1,   0.00,   0.00, 1005.1,   82.0, -999.0
21-11-2022, 00:35:47,    189,    0.0,    3.0,   0.00,   0.00, 1005.1,   81.9, -999.0
21-11-2022, 00:35:57,    188,    0.0,    3.1,   0.00,   0.00, 1005.1,   81.9, -999.0
21-11-2022, 00:36:08,    185,    0.0,    3.1,   0.00,   0.00, 1005.1,   81.9, -999.0
21-11-2022, 00:36:17,    190,    0.0,    3.1,   0.00,   0.00, 1005.1,   81.9, -999.0
21-11-2022, 00:36:27,    189,    0.0,    3.1,   0.00,   0.00, 1005.1,   81.9, -999.0
21-11-2022, 00:36:37,    189,    0.0,    3.1,   0.00,   0.00, 1005.2,   81.9, -999.0
21-11-2022, 00:36:47,    190,    0.0,    3.2,   0.00,   0.00, 1005.1,   81.8, -999.0
21-11-2022, 00:36:57,    190,    0.0,    3.1,   0.00,   0.00, 1005.1,   81.8, -999.0
21-11-2022, 00:37:07,    190,    0.0,    3.1,   0.00,   0.00, 1005.1,   81.8, -999.0
21-11-2022, 00:37:17,    189,    0.0,    3.2,   0.00,   0.00, 1005.2,   81.8, -999.0
21-11-2022, 00:37:27,    189,    0.0,    3.2,   0.00,   0.00, 1005.1,   81.8, -999.0
21-11-2022, 00:37:37,    190,    0.0,    3.2,   0.00,   0.00, 1005.2,   81.6, -999.0
21-11-2022, 00:37:47,    189,    0.0,    3.2,   0.00,   0.00, 1005.1,   81.6, -999.0
21-11-2022, 00:37:57,    189,    0.0,    3.1,   0.00,   0.00, 1005.2,   81.6, -999.0
21-11-2022, 00:38:07,    189,    0.0,    3.2,   0.00,   0.00, 1005.1,   81.6, -999.0
21-11-2022, 00:38:17,    190,    0.0,    3.2,   0.00,   0.00, 1005.1,   81.5, -999.0
21-11-2022, 00:38:27,    189,    0.0,    3.2,   0.00,   0.00, 1005.1,   81.4, -999.0
21-11-2022, 00:38:37,    189,    0.0,    3.2,   0.00,   0.00, 1005.1,   81.5, -999.0
21-11-2022, 00:38:47,    190,    0.0,    3.2,   0.00,   0.00, 1005.1,   81.4, -999.0
21-11-2022, 00:38:57,    189,    0.0,    3.2,   0.00,   0.00, 1005.1,   81.5, -999.0
21-11-2022, 00:39:07,    189,    0.0,    3.1,   0.00,   0.00, 1005.1,   81.4, -999.0
21-11-2022, 00:39:17,    189,    0.0,    3.2,   0.00,   0.00, 1005.1,   81.4, -999.0
21-11-2022, 00:39:27,    189,    0.0,    3.0,   0.00,   0.00, 1005.1,   81.5, -999.0
21-11-2022, 00:39:38,    189,    0.0,    3.1,   0.00,   0.00, 1005.1,   81.4, -999.0
21-11-2022, 00:39:47,    190,    0.0,    3.2,   0.00,   0.00, 1005.1,   81.4, -999.0
21-11-2022, 00:39:57,    189,    0.0,    3.1,   0.00,   0.00, 1005.1,   81.4, -999.0
21-11-2022, 00:40:07,    189,    0.0,    3.1,   0.00,   0.00, 1005.1,   81.3, -999.0
21-11-2022, 00:40:17,    189,    0.0,    3.1,   0.00,   0.00, 1005.1,   81.3, -999.0
21-11-2022, 00:40:27,    189,    0.0,    3.1,   0.00,   0.00, 1005.1,   81.3, -999.0
21-11-2022, 00:40:36,    189,    0.0,    3.0,   0.00,   0.00, 1005.0,   81.4, -999.0
21-11-2022, 00:40:47,    189,    0.0,    3.0,   0.00,   0.00, 1005.1,   81.3, -999.0
21-11-2022, 00:40:57,    189,    0.0,    3.0,   0.00,   0.00, 1005.1,   81.4, -999.0
21-11-2022, 00:41:06,    189,    0.0,    3.0,   0.00,   0.00, 1005.0,   81.4, -999.0
21-11-2022, 00:41:17,    190,    0.0,    3.0,   0.00,   0.00, 1005.0,   81.4, -999.0
21-11-2022, 00:41:27,    189,    0.0,    3.1,   0.00,   0.00, 1005.0,   81.5, -999.0
21-11-2022, 00:41:36,    189,    0.0,    2.9,   0.00,   0.00, 1005.0,   81.5, -999.0
21-11-2022, 00:41:46,    190,    0.0,    3.1,   0.00,   0.00, 1005.0,   81.6, -999.0
21-11-2022, 00:41:57,    189,    0.0,    3.0,   0.00,   0.00, 1005.0,   81.6, -999.0
21-11-2022, 00:42:06,    189,    0.0,    3.0,   0.00,   0.00, 1004.9,   81.6, -999.0
21-11-2022, 00:42:16,    189,    0.0,    3.0,   0.00,   0.00, 1005.0,   81.6, -999.0
21-11-2022, 00:42:26,    189,    0.0,    3.0,   0.00,   0.00, 1004.9,   81.6, -999.0
21-11-2022, 00:42:36,    189,    0.0,    2.9,   0.00,   0.00, 1004.9,   81.6, -999.0
21-11-2022, 00:42:46,    189,    0.0,    2.9,   0.00,   0.00, 1004.9,   81.7, -999.0
21-11-2022, 00:42:56,    189,    0.0,    3.1,   0.00,   0.00, 1004.9,   81.8, -999.0
21-11-2022, 00:43:06,    189,    0.0,    3.1,   0.00,   0.00, 1004.9,   81.9, -999.0
21-11-2022, 00:43:16,    190,    0.0,    3.1,   0.00,   0.00, 1004.9,   82.0, -999.0
21-11-2022, 00:43:26,    190,    0.0,    2.9,   0.00,   0.00, 1004.9,   81.8, -999.0
21-11-2022, 00:43:36,    189,    0.0,    3.0,   0.00,   0.00, 1005.0,   81.9, -999.0
21-11-2022, 00:43:46,    189,    0.0,    3.0,   0.00,   0.00, 1004.9,   81.9, -999.0
21-11-2022, 00:43:56,    189,    0.0,    3.0,   0.00,   0.00, 1004.9,   81.8, -999.0
21-11-2022, 00:44:06,    189,    0.0,    3.0,   0.00,   0.00, 1004.9,   81.8, -999.0
21-11-2022, 00:44:16,    190,    0.0,    3.0,   0.00,   0.00, 1004.9,   81.8, -999.0
21-11-2022, 00:44:26,    189,    0.0,    3.1,   0.00,   0.00, 1004.9,   81.8, -999.0
21-11-2022, 00:44:36,    189,    0.0,    3.0,   0.00,   0.00, 1004.9,   81.7, -999.0
21-11-2022, 00:44:46,    189,    0.0,    2.9,   0.00,   0.00, 1004.9,   81.7, -999.0
21-11-2022, 00:44:56,    189,    0.0,    2.9,   0.00,   0.00, 1004.9,   81.7, -999.0
21-11-2022, 00:45:06,    190,    0.0,    2.9,   0.00,   0.00, 1004.9,   81.7, -999.0
21-11-2022, 00:45:16,    189,    0.0,    2.9,   0.00,   0.00, 1004.9,   81.8, -999.0
21-11-2022, 00:45:26,    189,    0.0,    2.9,   0.00,   0.00, 1004.9,   81.9, -999.0
21-11-2022, 00:45:36,    189,    0.0,    2.9,   0.00,   0.00, 1004.9,   81.9, -999.0
21-11-2022, 00:45:45,    188,    0.0,    2.9,   0.00,   0.00, 1004.9,   82.0, -999.0
21-11-2022, 00:45:56,    189,    0.0,    2.9,   0.00,   0.00, 1004.9,   82.2, -999.0
21-11-2022, 00:46:06,    189,    0.0,    2.9,   0.00,   0.00, 1004.9,   82.3, -999.0
21-11-2022, 00:46:16,    189,    0.0,    2.8,   0.00,   0.00, 1004.9,   82.3, -999.0
21-11-2022, 00:46:26,    190,    0.0,    2.9,   0.00,   0.00, 1004.9,   82.4, -999.0
21-11-2022, 00:46:36,    189,    0.0,    2.9,   0.00,   0.00, 1004.9,   82.4, -999.0
21-11-2022, 00:46:46,    189,    0.0,    2.8,   0.00,   0.00, 1004.9,   82.5, -999.0